Location: Newark
(0.5300°S, 127.4800°E)
Time: 19:13:46
(UTC+00:00)

Vanguard 3 - Pass Details

Date: 22 September 2019
Orbit: 508 x 3262 km, 33.3° (Epoch: 23 October)

Event Time Altitude Azimuth Distance (km) Brightness Sun altitude
Rises 18:35:14 0° 226° (SW) 3,239 - -41.9°
Reaches altitude 10° 18:37:14 10° 222° (SW) 2,518 - -41.4°
Maximum altitude 18:43:11 62° 141° (SE) 1,369 - -39.9°
Exits shadow 18:44:14 58° 108° (ESE) 1,498 8.5 -39.6°
Drops below altitude 10° 18:53:55 10° 62° (ENE) 4,402 11.5 -37.2°
Sets 18:58:32 0° 60° (ENE) 5,862 12.3 -36.1°
